Location: Peterborough
(44.3091°N, 78.3197°W)
Time: 03:35:00
(UTC-04:00)

Tiros 1 - Pass Details

Date: 09 April 2023
Orbit: 627 x 661 km, 48.4° (Epoch: 09 June)

Event Time Altitude Azimuth Distance (km) Brightness Sun altitude
Rises 02:10:20 0° 255° (WSW) 2,953 - -36.7°
Reaches altitude 10° 02:12:40 10° 258° (WSW) 2,050 - -36.6°
Maximum altitude 02:17:24 71° 342° (NNW) 693 - -36.3°
Exits shadow 02:21:45 12° 66° (ENE) 1,910 10.0 -36.0°
Drops below altitude 10° 02:22:11 10° 67° (ENE) 2,072 10.2 -36.0°
Sets 02:24:33 0° 70° (ENE) 2,989 11.1 -35.9°
